Total_Precipitation_Accumulation
2.02 1.97 1.83 1.75 1.57 1.38 1.34 1.24 1.09 0.97 0.87 0.81 0.76 0.68 0.62 0.56 0.52 0.53 0.53 0.53 0.59 0.86 1.17 1.25 1.27 1.38 1.42 1.45 1.46 1.34 1.14 0.97 0.85 0.78 0.71 0.67 0.62 0.60 0.65 0.66 0.65 0.65 0.70
2.20 2.18 1.98 1.95 1.83 1.66 1.54 1.44 1.29 1.22 1.11 1.02 0.90 0.80 0.73 0.68 0.66 0.68 0.66 0.60 0.59 0.72 1.01 1.30 1.53 1.63 1.69 1.72 1.64 1.53 1.38 1.21 1.06 0.94 0.81 0.75 0.70 0.66 0.68 0.66 0.65 0.67 0.71
2.53 2.43 2.19 2.07 1.99 1.93 1.91 1.79 1.61 1.49 1.37 1.22 1.08 1.02 0.89 0.78 0.74 0.74 0.71 0.65 0.61 0.64 0.82 1.13 1.44 1.60 1.72 1.85 1.84 1.70 1.53 1.42 1.27 1.18 1.05 0.96 0.89 0.82 0.79 0.75 0.73 0.73 0.76
2.74 2.71 2.37 2.13 2.04 2.06 2.01 1.90 1.77 1.62 1.39 1.30 1.25 1.17 1.05 0.95 0.87 0.82 0.76 0.68 0.61 0.58 0.66 0.79 1.01 1.31 1.53 1.77 2.02 2.04 1.91 1.65 1.40 1.23 1.12 1.05 1.01 1.00 0.98 0.93 0.89 0.86 0.86
2.85 2.93 2.55 2.24 2.19 2.20 2.15 2.08 1.92 1.80 1.55 1.37 1.31 1.30 1.20 1.08 1.00 0.95 0.85 0.72 0.60 0.55 0.55 0.59 0.63 0.81 1.15 1.51 1.84 2.05 2.10 1.88 1.59 1.34 1.17 1.08 1.04 1.06 1.09 1.10 1.08 1.07 1.10
2.90 3.10 2.86 2.54 2.42 2.36 2.29 2.18 2.04 1.98 1.86 1.71 1.55 1.45 1.34 1.19 1.09 1.01 0.91 0.81 0.69 0.59 0.54 0.53 0.55 0.60 0.75 1.10 1.48 1.80 1.99 1.95 1.75 1.49 1.31 1.21 1.16 1.16 1.20 1.21 1.23 1.29 1.36
2.93 3.09 3.07 2.89 2.65 2.49 2.35 2.26 2.22 2.14 2.08 2.06 2.00 1.82 1.65 1.43 1.22 1.07 0.99 0.92 0.83 0.74 0.69 0.64 0.63 0.65 0.68 0.87 1.11 1.43 1.67 1.83 1.89 1.82 1.60 1.48 1.43 1.40 1.43 1.47 1.49 1.52 1.57
3.19 3.08 3.09 3.05 2.90 2.70 2.54 2.45 2.41 2.41 2.28 2.17 2.13 2.13 2.07 1.97 1.57 1.21 1.11 1.06 0.97 0.92 0.88 0.82 0.76 0.74 0.76 0.80 0.89 1.01 1.20 1.49 1.81 2.00 1.90 1.75 1.73 1.81 1.87 1.89 1.86 1.87 1.88
3.56 3.27 3.11 3.14 3.12 2.97 2.74 2.60 2.53 2.58 2.63 2.55 2.31 2.40 2.27 1.96 1.64 1.40 1.20 1.11 1.05 1.02 0.99 0.94 0.89 0.86 0.85 0.86 0.89 0.89 0.94 1.11 1.49 1.86 2.00 1.99 1.96 2.06 2.21 2.30 2.29 2.27 2.24
3.72 3.53 3.37 3.34 3.25 3.14 3.01 2.93 2.81 2.75 2.81 2.85 2.73 2.46 2.23 1.88 1.73 1.58 1.34 1.19 1.13 1.06 1.04 1.03 0.98 0.91 0.89 0.91 0.94 0.97 0.99 1.04 1.37 1.76 2.07 2.27 2.39 2.54 2.76 2.81 2.79 2.75 2.63
3.56 3.61 3.52 3.56 3.48 3.34 3.23 3.18 3.12 3.06 2.98 2.93 2.83 2.69 2.56 2.23 1.88 1.75 1.56 1.35 1.33 1.22 1.09 1.03 1.01 1.02 1.03 1.04 1.03 1.13 1.20 1.23 1.42 1.83 2.28 2.67 2.87 3.04 3.26 3.36 3.34 3.25 3.04
3.37 3.47 3.55 3.56 3.56 3.53 3.43 3.35 3.23 3.15 3.06 2.95 2.87 2.71 2.64 2.54 2.26 2.08 1.86 1.59 1.56 1.47 1.32 1.22 1.16 1.10 1.11 1.14 1.18 1.36 1.31 1.35 1.50 1.83 2.35 2.78 3.04 3.23 3.40 3.57 3.61 3.54 3.38
3.09 3.14 3.26 3.37 3.43 3.46 3.51 3.50 3.44 3.26 3.11 3.02 2.90 2.77 2.63 2.48 2.35 2.37 2.32 2.02 1.79 1.61 1.55 1.45 1.33 1.27 1.22 1.27 1.32 1.42 1.32 1.39 1.53 1.74 2.10 2.51 2.66 2.74 2.84 3.02 3.26 3.38 3.39
2.82 2.95 3.02 3.01 3.06 3.18 3.33 3.45 3.43 3.27 3.11 2.95 2.80 2.67 2.62 2.45 2.39 2.44 2.56 2.66 2.51 2.08 1.81 1.63 1.46 1.38 1.32 1.29 1.39 1.50 1.27 1.39 1.39 1.51 1.75 1.96 2.03 2.08 2.22 2.44 2.70 2.88 2.96
2.75 2.71 2.73 2.74 2.70 2.77 2.93 3.13 3.19 3.13 3.05 2.90 2.73 2.61 2.56 2.45 2.42 2.43 2.56 2.79 3.06 2.83 2.18 1.68 1.55 1.49 1.45 1.45 1.58 1.45 1.30 1.46 1.43 1.43 1.52 1.60 1.59 1.61 1.66 1.80 2.05 2.27 2.43
2.73 2.64 2.50 2.47 2.44 2.45 2.54 2.69 2.76 2.75 2.80 2.75 2.62 2.52 2.41 2.31 2.32 2.36 2.43 2.54 2.72 2.84 2.47 1.77 1.51 1.47 1.53 1.53 1.62 1.44 1.36 1.55 1.42 1.36 1.37 1.42 1.49 1.51 1.50 1.55 1.64 1.78 1.95
2.67 2.62 2.46 2.38 2.32 2.25 2.27 2.33 2.33 2.41 2.46 2.49 2.50 2.44 2.27 2.13 2.18 2.21 2.22 2.28 2.35 2.47 2.41 1.81 1.54 1.51 1.57 1.52 1.52 1.39 1.29 1.27 1.22 1.29 1.23 1.24 1.31 1.37 1.40 1.44 1.52 1.63 1.71
2.59 2.61 2.53 2.40 2.29 2.17 2.13 2.15 2.11 2.09 2.13 2.17 2.17 2.23 2.18 2.06 2.03 2.05 2.12 2.09 2.02 2.02 2.11 1.92 1.59 1.49 1.46 1.38 1.37 1.37 1.28 1.22 1.15 1.30 1.26 1.21 1.27 1.31 1.31 1.34 1.37 1.46 1.55
2.40 2.44 2.53 2.45 2.29 2.17 2.06 2.01 1.96 1.93 1.92 1.89 1.92 1.98 2.01 2.05 2.04 2.00 1.99 1.96 1.91 1.88 1.95 1.99 1.70 1.50 1.46 1.38 1.37 1.34 1.26 1.22 1.14 1.24 1.30 1.26 1.24 1.26 1.27 1.28 1.32 1.34 1.38
2.25 2.24 2.30 2.40 2.40 2.33 2.20 2.08 2.01 1.95 1.91 1.85 1.83 1.89 1.90 1.87 1.82 1.79 1.85 1.82 1.82 1.89 1.91 1.98 1.89 1.71 1.59 1.47 1.48 1.47 1.41 1.26 1.19 1.17 1.31 1.32 1.32 1.29 1.26 1.22 1.18 1.20 1.23
2.13 2.15 2.16 2.27 2.32 2.36 2.32 2.22 2.12 2.06 2.03 1.99 1.90 1.87 1.88 1.93 1.82 1.75 1.76 1.78 1.82 1.94 2.02 2.07 1.96 1.77 1.65 1.61 1.53 1.37 1.39 1.35 1.28 1.17 1.22 1.21 1.26 1.27 1.26 1.30 1.32 1.31 1.34
2.04 2.12 2.13 2.20 2.24 2.25 2.49 2.48 2.27 2.19 2.12 2.00 1.89 1.77 1.78 1.91 1.89 1.87 1.82 1.79 1.87 2.02 2.12 2.13 2.00 1.75 1.48 1.41 1.46 1.57 1.67 1.82 1.76 1.29 1.25 1.35 1.37 1.49 1.44 1.39 1.52 1.53 1.51
2.17 2.19 2.24 2.27 2.29 2.38 2.49 2.31 2.27 2.11 2.08 1.97 1.82 1.71 1.68 1.67 1.78 1.65 1.71 1.79 1.77 1.86 1.93 1.92 1.86 1.52 1.34 1.31 1.59 1.83 1.84 1.85 1.66 1.40 1.55 1.73 1.58 1.52 1.39 1.43 1.65 1.55 1.50
2.36 2.36 2.35 2.34 2.32 2.36 2.40 2.25 2.23 2.03 1.96 1.84 1.70 1.56 1.52 1.51 1.56 1.68 1.78 1.88 1.74 1.60 1.53 1.44 1.41 1.33 1.31 1.43 1.72 2.03 2.19 2.26 1.98 1.71 1.70 1.87 1.60 1.44 1.32 1.35 1.56 1.50 1.41
2.35 2.39 2.30 2.22 2.13 2.13 2.19 2.07 2.08 1.97 1.96 1.84 1.70 1.61 1.54 1.45 1.59 1.83 1.93 1.97 1.78 1.56 1.51 1.53 1.57 1.57 1.67 1.77 1.89 2.24 2.52 2.69 2.43 1.85 1.57 1.64 1.52 1.45 1.40 1.37 1.45 1.58 1.49
2.18 2.15 2.11 2.03 1.94 1.91 2.02 1.93 1.95 1.96 1.97 1.82 1.71 1.66 1.73 1.63 1.75 1.91 1.88 1.92 1.81 1.54 1.44 1.44 1.46 1.48 1.40 1.44 1.69 1.85 2.30 2.82 2.52 2.03 1.47 1.51 1.55 1.73 2.01 1.52 1.32 1.38 1.46